Погода в Жатае

Россия / Республика Саха (Якутия)     62°09′50″N   129°50′29″E
темп.,
°C
ветер,
м/с
пор.,
м/с
влажн.,
%
обл.,
%
осадки,
мм/ч
давл.,
гПа
погр.,
м
3 марта, ср
ср300:00−31зсз1194100 0.0 102319
03:00−31зсз1194100 0.0 102319
06:00−32зсз1195100 0.0 102219
09:00−31зсз1194100 0.0 102167
12:00−28зсз128798 0.0 1020387
15:00−26зсз238799 0.1 1018523
18:00−28зсз2295100 0.1 101853
21:00−29зсз3695100 0.1 1018262
4 марта, чт
чт400:00−30зсз3695100 0.1 1018272
03:00−31з3795100 0.1 1017345
06:00−32з3795100 0.1 1017425
09:00−31зсз4891100 0.2 1017737
12:00−30зсз4788100 0.1 1018804
15:00−30сз4787100 0.1 1019796
18:00−32сз3791100 0.1 1021460
21:00−35зсз389399 0.1 1023257
5 марта, пт
пт500:00−38зсз369444 0.0 1024120
03:00−38з389351 0.0 1025159
06:00−38зсз379195 0.0 1026194
09:00−35зсз498997 0.0 1027362
12:00−31зсз488793 0.0 1027534
15:00−29зсз478896 0.0 1027592
18:00−31зсз3893100 0.0 1027216
21:00−33зсз389480 0.0 1027170
6 марта, сб
сб600:00−34з39920 0.0 1026213
03:00−34зсз48910 0.0 1026200
06:00−36з369311 0.0 1027140
09:00−33зсз37916 0.0 1026286
12:00−29зсз258722 0.0 1025407
15:00−26зсз248640 0.0 1024464
18:00−30зсз129782 0.0 102419
21:00−33сз119845 0.0 102519
7 марта, вс
вс700:00−34зсз11980 0.0 102419
03:00−35зсз11990 0.0 102519
06:00−36зсз11980 0.0 102519
09:00−32ссз00930 0.0 102433
12:00−28юв108719 0.0 1023267
15:00−26юв119044 0.0 1022194
18:00−32вюв119965 0.0 102219
21:00−32ююв009935 0.0 102319